Terminal Aerodrome Forecast
Issued by NWS

Current Version | Previous Version | Graphics & Text | Print | Product List | Glossary On
Versions: 1 2 3 4 5 6 7 8 9 10 11 12 13 14 15 16 17
000
FTUS41 KPBZ 160522
TAFHLG
TAF
KHLG 160522Z 1606/1706 30003KT P6SM SCT250
     FM160900 00000KT 1SM BR SCT002
     FM161300 32005KT P6SM SCT035=

USA.gov is the U.S. government's official web portal to all federal, state and local government web resources and services.